星链-3632 (STARLINK-3632 )

导读 | 星芒AI

STARLINK-3632 是 SpaceX Starlink 项目中的一颗低轨通信卫星,属于第 12 批组网发射的卫星之一。该卫星于 2022 年 9 月 30 日由猎鹰 9 号火箭送入近地轨道,旨在为全球用户提供高速互联网服务。Starlink 卫星网络致力于改善偏远地区的网络接入,具备低延迟和高带宽特性。STARLINK-3632 采用先进推进系统和激光通信技术,支持卫星间高速数据传输,提升整体网络效率与稳定性。

基本信息
目录编号:
51784
目录名称:
STARLINK-3632
国际标识:
2022-017S
轨道中心:
EARTH
卫星名称:
星链-3632
卫星全名:
星链-3632 (STARLINK-3632 )
卫星状态:
在轨 (已飞行1348 天)
发射日期:
2022-02-25 UTC
国别 :
美国 (US)
星等 :
--
轨道信息
数据来源 国际轨道数据
星历时间: 2025-11-04T17:41:56+0800
8小时前
查看轨道信息
半长轴: 6917.878km
偏心率: 0.0001117
轨道倾角: 53.215°
近地点辐角 91.654°
升交点赤经 191.548°
平近点角 268.458°
近地点: 538.97km
远地点: 540.516km
周期: 95.437分钟
每日圈数: 15.088411
详细信息
固有亮度:
5
最大亮度:
2.5
卫星平台:
Starlink v1.5
覆盖范围:
全球
运营商:
太空探索技术公司
运营商所在国:
美国
制造商(研发单位):
太空探索技术公司
制造商所在国:
美国
使用方式:
暂无
卫星简介
星链(Starlink)计划是由太空探索技术公司(SpaceX)提出的一个巨型低轨卫星互联网星座项目,计划在2019年至2024年间在太空搭建由约1.2万颗卫星组成的“星链”网络,其中1584颗将部署在地球上空550千米处的近地轨道,并从2020年开始工作。该卫星仍在工作。
2D轨道图
3D轨道图
轨道高度分析图
轨道倾角分析图
轨道综合分析图
查看轨道综合分析图